Change the Weather History Date:

Wednesday, October 31, 2012

  Actual Average (KONT) Record (KONT)
Temperature  
Mean Temperature 56 °F 64 °F  
Max Temperature 74 °F 77 °F 91 °F (1999)
Min Temperature 37 °F 51 °F 45 °F (2004)
Degree Days  
Heating Degree Days 10 3  
Month to date heating degree days 43  
Since 1 July heating degree days 45  
Cooling Degree Days 0 2  
Month to date cooling degree days 132  
Year to date cooling degree days 1683  
Growing Degree Days 6 (Base 50)    
Moisture  
Dew Point 45 °F    
Average Humidity 88    
Maximum Humidity 100    
Minimum Humidity 40    
Precipitation  
Precipitation 0.02 in 0.03 in 0.01 in (2003)
Month to date precipitation 0.64  
Year to date precipitation 11.51  
Since 1 July precipitation 1.13  
Snow  
Snow 0.00 in - - ()
Month to date snowfall  
Year to date snowfall  
Since 1 July snowfall  
Snow Depth -    
Sea Level Pressure  
Sea Level Pressure 30.01 in    
Wind  
Wind Speed 1 mph (West)    
Max Wind Speed 13 mph    
Max Gust Speed -    
Visibility 4 miles    
Events Fog    
T = Trace of Precipitation, MM = Missing Value Source: NWS Daily Summary

Daily Weather History Graph

Daily Weather History Graph

Search for Another Location

Airport or City:

Trip Planner

Search our weather history database for the weather conditions in past years. The results will help you decide how hot, cold, wet, or windy it might be!

Date:

Astronomy

Oct. 31, 2012 Rise Set
Actual Time 7:09 AM PDT 5:58 PM PDT
Civil Twilight 6:43 AM PDT 6:23 PM PDT
Nautical Twilight 6:14 AM PDT 6:53 PM PDT
Astronomical Twilight 5:44 AM PDT 7:22 PM PDT
Moon 7:18 PM PDT (10/31) 8:49 AM PDT (10/31)
Length of Visible Light 11h 40m
Length of Day
10h 48m
Waning Gibbous, 97% of the Moon is Illuminated
Oct 31
Waning Gibbous
Nov 6
Last Quarter
Nov 13
New
Nov 20
First Quarter
Nov 28
Full

Hourly Weather History & Observations

Time (PDT) Temp. Dew Point Humidity Pressure Visibility Wind Dir Wind Speed Gust Speed Precip Events Conditions
12:56 AM 45.9 °F 41.0 °F 83% 30.02 in 10.0 mi Calm Calm - N/A   Clear
1:56 AM 45.0 °F 43.0 °F 93% 30.01 in 10.0 mi Calm Calm - N/A   Clear
2:56 AM 45.0 °F 43.9 °F 96% 30.01 in 8.0 mi Calm Calm - N/A   Clear
3:36 AM 46.4 °F 44.6 °F 93% 30.02 in 1.8 mi Calm Calm - N/A   Clear
3:39 AM 46.4 °F 46.4 °F 100% 30.02 in 0.8 mi Calm Calm - N/A   Clear
3:42 AM 46.4 °F 46.4 °F 100% 30.02 in 0.2 mi Calm Calm - N/A Fog Fog
3:56 AM 43.9 °F 43.9 °F 100% 30.01 in 0.2 mi Calm Calm - N/A Fog Fog
4:56 AM 43.0 °F 43.0 °F 100% 30.00 in 0.2 mi Calm Calm - N/A Fog Fog
5:03 AM 42.8 °F 42.8 °F 100% 30.01 in 0.2 mi Calm Calm - N/A Fog Fog
5:21 AM 42.8 °F 42.8 °F 100% 30.02 in 0.2 mi Calm Calm - N/A Fog Fog
5:46 AM 41.0 °F 41.0 °F 100% 30.02 in 0.2 mi Calm Calm - N/A Fog Fog
5:56 AM 41.0 °F 41.0 °F 100% 30.01 in 0.2 mi Calm Calm - N/A Fog Fog
6:03 AM 42.8 °F 42.8 °F 100% 30.02 in 0.8 mi Calm Calm - N/A   Mostly Cloudy
6:05 AM 41.0 °F 41.0 °F 100% 30.02 in 2.0 mi Calm Calm - N/A   Scattered Clouds
6:10 AM 39.2 °F 39.2 °F 100% 30.02 in 1.2 mi Calm Calm - N/A   Mostly Cloudy
6:12 AM 39.2 °F 39.2 °F 100% 30.02 in 0.8 mi Calm Calm - N/A   Mist
6:24 AM 41.0 °F 41.0 °F 100% 30.02 in 1.2 mi Calm Calm - N/A   Mostly Cloudy
6:31 AM 39.2 °F 39.2 °F 100% 30.02 in 0.8 mi Calm Calm - N/A   Mist
6:38 AM 39.2 °F 39.2 °F 100% 30.02 in 0.5 mi Calm Calm - N/A Fog Fog
6:56 AM 38.8 °F 38.8 °F 100% 30.02 in 0.2 mi Calm Calm - N/A Fog Fog
7:04 AM 37.4 °F 37.4 °F 100% 30.03 in 0.2 mi Calm Calm - N/A Fog Fog
7:15 AM 37.4 °F 37.4 °F 100% 30.03 in 0.8 mi Calm Calm - 0.01 in   Clear
7:21 AM 37.4 °F 37.4 °F 100% 30.03 in 0.2 mi Calm Calm - 0.01 in Fog Fog
7:27 AM 37.4 °F 37.4 °F 100% 30.03 in 0.2 mi Calm Calm - 0.01 in Fog Fog
7:36 AM 39.2 °F 39.2 °F 100% 30.03 in 0.2 mi Calm Calm - 0.01 in Fog Fog
7:39 AM 39.2 °F 39.2 °F 100% 30.03 in 0.5 mi Calm Calm - 0.01 in Fog Fog
7:56 AM 41.0 °F 41.0 °F 100% 30.04 in 1.2 mi Calm Calm - 0.01 in   Mostly Cloudy
8:00 AM 41.0 °F 41.0 °F 100% 30.04 in 2.0 mi Calm Calm - N/A   Clear
8:10 AM 42.8 °F 42.8 °F 100% 30.05 in 5.0 mi Calm Calm - N/A   Clear
8:56 AM 50.0 °F 50.0 °F 100% 30.05 in 6.0 mi Calm Calm - N/A   Clear
9:56 AM 59.0 °F 43.9 °F 57% 30.06 in 10.0 mi WNW 4.6 mph - 0.01 in   Clear
10:56 AM 64.9 °F 50.0 °F 58% 30.05 in 10.0 mi WSW 5.8 mph - N/A   Clear
11:56 AM 68.9 °F 50.9 °F 53% 30.03 in 9.0 mi WSW 8.1 mph - N/A   Clear
12:56 PM 72.0 °F 52.0 °F 49% 30.00 in 9.0 mi West 10.4 mph - N/A   Clear
1:56 PM 72.9 °F 50.0 °F 44% 29.97 in 10.0 mi West 9.2 mph - N/A   Clear
2:56 PM 74.8 °F 48.9 °F 40% 29.95 in 10.0 mi WNW 9.2 mph - N/A   Clear
3:56 PM 73.9 °F 48.9 °F 41% 29.96 in 9.0 mi West 12.7 mph - N/A   Clear
5:56 PM 68.9 °F 52.0 °F 55% 29.96 in 10.0 mi NW 5.8 mph - N/A   Clear
6:56 PM 63.9 °F 52.9 °F 67% 29.97 in 10.0 mi West 3.5 mph - N/A   Clear
7:56 PM 61.9 °F 54.9 °F 78% 29.99 in 10.0 mi WNW 5.8 mph - N/A   Clear
8:56 PM 56.8 °F 54.0 °F 90% 30.00 in 8.0 mi Calm Calm - N/A   Clear
9:56 PM 52.9 °F 52.9 °F 100% 30.00 in 5.0 mi Calm Calm - N/A   Clear
10:56 PM 52.9 °F 52.9 °F 100% 30.01 in 7.0 mi West 4.6 mph - N/A   Clear
11:56 PM 54.9 °F 54.0 °F 97% 30.01 in 7.0 mi West 3.5 mph - N/A   Clear